Regional Weather Roundup
Issued by NWS Charleston, SC

Current Version | Previous Version | Graphics & Text | Print | Product List | Glossary Off
Versions: 1 2 3 4 5 6 7 8 9 10 11 12 13 14 15 16 17 18 19 20 21 22 23 24 25 26 27 28 29 30 31 32 33 34 35 36 37 38 39 40 41 42 43 44 45 46 47 48 49 50

000
ASUS42 KCHS 241325
RWRCHS

REGIONAL WEATHER ROUNDUP
NATIONAL WEATHER SERVICE CHARLESTON SC
900 AM EDT THU JUL 24 2014

NOTE: "FAIR" INDICATES FEW OR NO CLOUDS BELOW 12,000 FEET WITH NO
SIGNIFICANT WEATHER AND/OR OBSTRUCTIONS TO VISIBILITY.

NOT ALL STATIONS ARE QUALITY CONTROLLED BY THE NATIONAL
WEATHER SERVICE. USE DATA WITH CAUTION...ESPECIALLY
DEWPOINT OBSERVATIONS.

SCZ027-030-031-034>040-042>050-241400-
...SOUTH CAROLINA...

CITY           SKY/WX    TMP DP  RH WIND       PRES   REMARKS
N CHARLESTON   SUNNY     84  74  71 W8        29.98R HX  91
WATERFRONT PRK   N/A     82 N/A N/A W7          N/A
FORT JOHNSON   NOT AVBL
MOUNT PLEASANT FAIR      84  75  74 W8        29.98R HX  92
JOHNS ISLAND   SUNNY     84  66  54 W9        29.98S
PINOPOLIS        N/A     82  75  78 SW9       29.88S
MONCKS CORNER    N/A     84  77  79 W5        29.97S HX  94
SUMMERVILLE    FAIR      82  77  83 W5        29.99R HX  91
BEAUFORT MCAS  SUNNY     83  74  74 NW9       29.99R
BEAUFORT ARPT  FAIR      82  75  78 W8        29.99R
HILTON HEAD IS SUNNY    N/A N/A N/A SW9       30.01R
GEORGETOWN     NOT AVBL
WALTERBORO     SUNNY     82  77  83 W7        29.99S HX  91
ORANGEBURG     SUNNY     81  73  76 SW7       29.97S
BARNWELL       FAIR      82  73  74 SW7       29.99S
AIKEN          FAIR      81  77  89 SW10      30.01S
MANNING        FAIR      82  81  94 SW8       29.96S HX  95
KINGSTREE      NOT AVBL
COLUMBIA       MOSUNNY   83  72  69 SW9       29.95S
SUMTER         SUNNY     81  75  83 SW10      29.93S
FLORENCE       SUNNY     82  74  76 SW8       29.94S
MYRTLE BEACH   SUNNY     82  75  78 SW8       29.95S
N MYRTLE BEACH SUNNY     83  75  77 W8        29.95R HX  90

$$

GAZ063-065-086>088-099>101-113>116-118-119-134-136>141-150-241400-
...GEORGIA...

CITY           SKY/WX    TMP DP  RH WIND       PRES   REMARKS
SAVANNAH ARPT  SUNNY     81  72  74 W10       30.01R
HUNTER AAF     SUNNY     81  74  78 W8        29.99R
FORT STEWART   SUNNY     81  73  78 SW7       30.00R
STATESBORO     NOT AVBL
SYLVANIA       SUNNY     81  77  86 W6        30.01S
CLAXTON        FAIR      82  77  83 W7        30.01S HX  91
THOMSON        SUNNY     83  77  84 W5        30.03S HX  91
AUGUSTA-BUSH   SUNNY     81  72  74 W8        29.97S
AUGUSTA-DANIEL SUNNY     82  73  74 VRB6      29.99R
SWAINSBORO     FAIR      81  81 100 W6        30.02R HX  91
VIDALIA          N/A     81  73  78 SW6       30.02S
ALMA           SUNNY     79  72  79 VRB5      30.03R
WAYCROSS       SUNNY     84  77  77 W8        30.03S HX  94
JESUP          NOT AVBL
BRUNSWICK      SUNNY     82  72  69 CALM      30.03S
SAINT SIMONS   SUNNY     81  74  79 W8        30.02S

$$

SCZ027-028-034-036>038-045-046-048>050-GAZ119-141-241400-
...LAKE AND SUPPLEMENTAL COASTAL OBSERVATIONS...

STATION/POSITION TIME  TEMP    WIND        PRES    WAVE   SWELL
                       AIR SEA DIR/SP/G            HT/PER HT/PER/DIR
                 (UTC) (F)     (DEG/KT/KT) (MB)    (FT/S) (FT/S/D)
UPR LAKE MARION  NOT AVBL
WINYAH BAY       1300   82     250/  6     1014.0S
LAKE MURRAY      1300   80     270/  9/ 11 1013.5S
ACE BASIN NERRS  1300   82     260/  3     1015.0S
FORT PULASKI     1300   81     240/  6/  8 1016.2R
SAPELO ISLAND    1300   81     250/ 10     1017.0S

$$

ANZ835-935-AMZ111-154-330-350-352-354-374-450-454-472-241400-
...C-MAN AND BUOY OBSERVATIONS...

STATION/POSITION TIME  TEMP    WIND        PRES    WAVE   SWELL
                       AIR SEA DIR/SP/G            HT/PER HT/PER/DIR
                 (UTC) (F)     (DEG/KT/KT) (MB)    (FT/S) (FT/S/D)
FOLLY BEACH CMAN 1300   83     270/  5/  9 1015.5R
BUOY 41004       1300   82 82  220/ 14/ 16 1014.3R   4/ 6   2/ 7
BUOY 41008       1300   81 84  250/ 14/ 16 1016.3R   3/ 4   2/130/ 7
5E ST. MARYS GA  1300      84                N/A     2/ 7
FRYING PAN BUOY  NOT AVBL
BUOY 41025       1300          VRB 17/ 21  1012.4F   4/ 5
CAPE LOOKOUT NC  1300   82     250/ 14/ 18 1013.4R
BUOY 41002       1222   80 82  220/ 17/ 23 1017.0R   5/ 5
BUOY 41010       1300   83 83  210/ 12/ 16 1017.8S   3/ 7   2/140/ 7
BUOY 41012       NOT AVBL
ST AUGUSTINE FL  1300   81     300/  7/  9 1018.3R
CAPERS NEARSHORE 1200   84     260/ 10/ 12   N/A
FRIPP NEARSHORE  NOT AVBL


$$


USA.gov is the U.S. government's official web portal to all federal, state and local government web resources and services.